Total_Precipitation_Accumulation
0.05 0.06 0.07 0.08 0.04 0.02 0.00 0.00 0.00 0.00 0.00 0.00 0.00 0.00 0.00 0.00 0.00 0.00 0.00 0.00 0.01 0.03 0.05 0.14 0.20 0.23 0.26 0.28 0.27 0.26 0.26 0.25 0.27 0.28 0.27 0.29 0.32 0.34 0.38 0.39 0.42 0.46 0.53 0.59 0.56 0.53 0.57 0.59 0.62
0.05 0.08 0.10 0.09 0.04 0.01 0.00 0.00 0.00 0.00 0.00 0.00 0.00 0.00 0.00 0.00 0.00 0.00 0.00 0.00 0.00 0.01 0.03 0.08 0.17 0.22 0.26 0.28 0.28 0.28 0.27 0.25 0.25 0.28 0.30 0.32 0.35 0.37 0.39 0.42 0.46 0.50 0.57 0.57 0.61 0.60 0.61 0.63 0.61
0.08 0.11 0.11 0.08 0.03 0.00 0.00 0.00 0.00 0.00 0.00 0.00 0.00 0.00 0.00 0.00 0.00 0.00 0.00 0.00 0.00 0.01 0.02 0.07 0.16 0.23 0.28 0.32 0.32 0.30 0.28 0.27 0.26 0.28 0.33 0.36 0.40 0.42 0.39 0.43 0.46 0.49 0.54 0.53 0.57 0.60 0.57 0.55 0.52
0.11 0.15 0.13 0.07 0.01 0.00 0.00 0.00 0.00 0.00 0.00 0.00 0.00 0.00 0.00 0.00 0.00 0.00 0.00 0.00 0.00 0.01 0.02 0.07 0.17 0.25 0.29 0.35 0.38 0.34 0.31 0.32 0.32 0.33 0.35 0.36 0.38 0.41 0.41 0.41 0.39 0.41 0.47 0.50 0.53 0.56 0.53 0.54 0.53
0.13 0.15 0.12 0.06 0.01 0.00 0.00 0.00 0.00 0.00 0.00 0.00 0.00 0.00 0.00 0.00 0.00 0.00 0.00 0.00 0.01 0.02 0.03 0.07 0.18 0.26 0.30 0.35 0.41 0.39 0.37 0.36 0.37 0.38 0.39 0.40 0.40 0.41 0.41 0.40 0.38 0.37 0.37 0.42 0.49 0.53 0.55 0.58 0.54
0.17 0.15 0.09 0.03 0.01 0.00 0.00 0.00 0.00 0.00 0.00 0.00 0.00 0.00 0.00 0.00 0.00 0.00 0.00 0.00 0.01 0.02 0.04 0.08 0.21 0.27 0.30 0.36 0.41 0.41 0.41 0.42 0.42 0.43 0.44 0.45 0.45 0.45 0.42 0.39 0.38 0.37 0.35 0.35 0.40 0.47 0.57 0.62 0.55
0.18 0.13 0.06 0.02 0.01 0.00 0.00 0.00 0.00 0.00 0.00 0.00 0.00 0.00 0.00 0.00 0.00 0.00 0.00 0.01 0.02 0.03 0.05 0.09 0.19 0.26 0.33 0.40 0.46 0.45 0.46 0.47 0.46 0.47 0.49 0.49 0.48 0.47 0.45 0.41 0.38 0.37 0.37 0.36 0.35 0.41 0.51 0.56 0.54
0.18 0.18 0.08 0.03 0.01 0.01 0.00 0.00 0.00 0.00 0.00 0.00 0.00 0.00 0.00 0.00 0.00 0.01 0.01 0.03 0.04 0.06 0.07 0.11 0.18 0.23 0.29 0.37 0.43 0.48 0.49 0.51 0.50 0.49 0.46 0.42 0.45 0.50 0.47 0.39 0.36 0.36 0.37 0.36 0.34 0.35 0.39 0.44 0.46
0.24 0.26 0.13 0.04 0.02 0.01 0.01 0.01 0.00 0.00 0.01 0.00 0.00 0.00 0.00 0.00 0.01 0.02 0.04 0.06 0.07 0.08 0.10 0.14 0.20 0.24 0.29 0.34 0.37 0.45 0.51 0.54 0.53 0.51 0.42 0.41 0.41 0.41 0.40 0.34 0.32 0.35 0.38 0.38 0.39 0.38 0.36 0.35 0.30
0.34 0.27 0.12 0.04 0.03 0.03 0.02 0.02 0.02 0.02 0.01 0.01 0.00 0.00 0.00 0.01 0.02 0.04 0.05 0.08 0.09 0.10 0.13 0.15 0.21 0.27 0.31 0.32 0.36 0.43 0.46 0.46 0.45 0.43 0.40 0.41 0.39 0.36 0.34 0.32 0.32 0.35 0.36 0.39 0.41 0.41 0.38 0.33 0.26
0.32 0.24 0.11 0.05 0.05 0.07 0.06 0.04 0.03 0.04 0.03 0.01 0.01 0.01 0.01 0.03 0.05 0.06 0.07 0.09 0.10 0.10 0.13 0.15 0.21 0.27 0.32 0.35 0.35 0.38 0.40 0.41 0.42 0.40 0.37 0.40 0.42 0.41 0.37 0.33 0.31 0.33 0.33 0.36 0.37 0.39 0.36 0.35 0.35
0.29 0.20 0.13 0.08 0.06 0.09 0.10 0.07 0.05 0.05 0.03 0.01 0.02 0.02 0.03 0.04 0.05 0.07 0.08 0.11 0.14 0.14 0.15 0.17 0.21 0.27 0.33 0.35 0.35 0.37 0.37 0.35 0.36 0.37 0.37 0.38 0.38 0.35 0.31 0.28 0.25 0.26 0.26 0.28 0.30 0.31 0.31 0.32 0.34
0.27 0.17 0.13 0.12 0.10 0.10 0.12 0.11 0.08 0.05 0.02 0.02 0.03 0.04 0.05 0.05 0.06 0.07 0.09 0.13 0.15 0.16 0.18 0.20 0.22 0.27 0.32 0.37 0.37 0.38 0.38 0.34 0.33 0.35 0.36 0.32 0.31 0.29 0.29 0.27 0.25 0.24 0.23 0.23 0.24 0.25 0.26 0.28 0.31
0.26 0.18 0.15 0.15 0.16 0.14 0.14 0.12 0.09 0.05 0.03 0.04 0.06 0.07 0.07 0.08 0.08 0.09 0.11 0.13 0.16 0.17 0.19 0.22 0.25 0.29 0.35 0.38 0.37 0.35 0.38 0.40 0.37 0.33 0.32 0.32 0.30 0.27 0.27 0.27 0.26 0.23 0.22 0.23 0.23 0.23 0.24 0.26 0.27
0.27 0.26 0.21 0.17 0.19 0.20 0.21 0.18 0.08 0.04 0.04 0.07 0.08 0.08 0.08 0.09 0.10 0.10 0.11 0.13 0.14 0.19 0.22 0.25 0.29 0.31 0.35 0.39 0.41 0.39 0.38 0.40 0.40 0.35 0.31 0.30 0.32 0.32 0.28 0.27 0.26 0.25 0.26 0.27 0.26 0.25 0.26 0.25 0.25
0.41 0.45 0.36 0.19 0.17 0.22 0.33 0.26 0.06 0.03 0.06 0.08 0.08 0.08 0.08 0.07 0.09 0.11 0.12 0.16 0.17 0.22 0.27 0.28 0.32 0.34 0.37 0.40 0.44 0.45 0.43 0.44 0.42 0.38 0.36 0.33 0.32 0.33 0.36 0.34 0.30 0.28 0.29 0.34 0.33 0.29 0.27 0.25 0.24
0.58 0.51 0.29 0.16 0.14 0.22 0.32 0.25 0.09 0.06 0.08 0.09 0.08 0.08 0.07 0.07 0.08 0.09 0.12 0.15 0.19 0.23 0.28 0.31 0.34 0.36 0.38 0.41 0.48 0.50 0.50 0.49 0.49 0.45 0.39 0.36 0.36 0.35 0.37 0.39 0.36 0.38 0.40 0.37 0.37 0.33 0.34 0.32 0.27
0.42 0.30 0.20 0.15 0.15 0.20 0.23 0.16 0.10 0.10 0.10 0.10 0.09 0.08 0.09 0.08 0.07 0.09 0.12 0.15 0.20 0.25 0.30 0.36 0.37 0.40 0.44 0.49 0.56 0.61 0.60 0.57 0.56 0.53 0.46 0.38 0.36 0.37 0.38 0.38 0.40 0.43 0.47 0.46 0.44 0.38 0.35 0.35 0.37
0.26 0.26 0.22 0.15 0.14 0.20 0.19 0.14 0.12 0.13 0.13 0.11 0.09 0.09 0.11 0.09 0.08 0.10 0.12 0.14 0.18 0.24 0.33 0.40 0.41 0.46 0.50 0.54 0.56 0.61 0.60 0.59 0.61 0.57 0.53 0.47 0.41 0.39 0.41 0.39 0.41 0.44 0.43 0.40 0.39 0.40 0.37 0.34 0.36
0.35 0.36 0.28 0.18 0.16 0.20 0.20 0.16 0.14 0.14 0.15 0.12 0.09 0.09 0.10 0.12 0.12 0.13 0.14 0.16 0.17 0.21 0.31 0.43 0.43 0.47 0.49 0.48 0.47 0.50 0.56 0.58 0.60 0.60 0.59 0.54 0.48 0.45 0.45 0.46 0.44 0.43 0.41 0.38 0.35 0.35 0.36 0.34 0.34
0.40 0.33 0.25 0.24 0.25 0.27 0.27 0.23 0.12 0.12 0.11 0.09 0.08 0.08 0.09 0.11 0.13 0.15 0.18 0.21 0.20 0.22 0.28 0.41 0.43 0.44 0.50 0.51 0.56 0.58 0.69 0.75 0.72 0.66 0.64 0.57 0.51 0.46 0.45 0.47 0.50 0.49 0.45 0.41 0.37 0.34 0.35 0.35 0.33
0.40 0.21 0.21 0.28 0.45 0.53 0.40 0.40 0.15 0.11 0.11 0.10 0.09 0.09 0.09 0.11 0.13 0.15 0.17 0.23 0.26 0.22 0.26 0.34 0.41 0.42 0.50 0.54 0.58 0.57 0.58 0.65 0.63 0.58 0.55 0.52 0.51 0.49 0.46 0.47 0.48 0.50 0.47 0.42 0.38 0.37 0.36 0.39 0.41
0.30 0.21 0.29 0.39 0.55 0.62 0.44 0.45 0.19 0.10 0.15 0.14 0.12 0.10 0.09 0.09 0.11 0.14 0.17 0.22 0.29 0.27 0.31 0.35 0.37 0.41 0.48 0.56 0.57 0.59 0.55 0.54 0.60 0.65 0.62 0.57 0.51 0.51 0.48 0.47 0.48 0.48 0.46 0.43 0.40 0.38 0.40 0.42 0.44
0.33 0.42 0.54 0.63 0.92 1.00 0.36 0.33 0.21 0.12 0.15 0.14 0.12 0.11 0.11 0.10 0.11 0.13 0.17 0.23 0.31 0.36 0.37 0.42 0.42 0.43 0.48 0.55 0.59 0.62 0.60 0.57 0.62 0.66 0.69 0.65 0.60 0.56 0.53 0.51 0.49 0.47 0.44 0.42 0.41 0.40 0.40 0.40 0.41
0.61 0.94 1.32 1.31 1.33 0.79 0.16 0.17 0.17 0.10 0.07 0.08 0.11 0.13 0.14 0.12 0.13 0.14 0.17 0.25 0.36 0.42 0.42 0.47 0.48 0.45 0.47 0.54 0.57 0.58 0.60 0.61 0.60 0.63 0.65 0.66 0.62 0.57 0.55 0.55 0.52 0.49 0.46 0.43 0.42 0.44 0.45 0.45 0.46
0.58 0.85 1.15 1.00 0.58 0.23 0.10 0.13 0.11 0.07 0.05 0.04 0.04 0.07 0.11 0.13 0.15 0.17 0.18 0.25 0.35 0.43 0.46 0.46 0.48 0.48 0.51 0.53 0.54 0.56 0.61 0.63 0.62 0.62 0.64 0.66 0.63 0.56 0.52 0.54 0.54 0.50 0.48 0.48 0.47 0.47 0.48 0.50 0.51
0.48 0.57 0.57 0.79 0.56 0.30 0.17 0.10 0.07 0.06 0.05 0.04 0.03 0.05 0.08 0.09 0.12 0.18 0.18 0.23 0.33 0.39 0.41 0.40 0.46 0.50 0.53 0.56 0.55 0.56 0.60 0.65 0.63 0.62 0.62 0.63 0.67 0.62 0.58 0.59 0.61 0.59 0.58 0.59 0.59 0.57 0.55 0.56 0.56
0.41 0.51 0.68 1.10 0.96 0.46 0.18 0.10 0.09 0.07 0.07 0.06 0.05 0.07 0.10 0.11 0.13 0.18 0.19 0.20 0.28 0.37 0.35 0.33 0.41 0.45 0.45 0.51 0.58 0.57 0.59 0.64 0.67 0.68 0.67 0.64 0.65 0.68 0.68 0.67 0.63 0.61 0.63 0.68 0.74 0.72 0.64 0.64 0.63
0.48 0.65 0.89 0.99 0.73 0.50 0.27 0.16 0.12 0.10 0.11 0.11 0.10 0.10 0.12 0.15 0.15 0.20 0.21 0.23 0.25 0.32 0.33 0.32 0.34 0.44 0.46 0.47 0.51 0.58 0.60 0.66 0.72 0.75 0.71 0.68 0.69 0.73 0.74 0.75 0.72 0.67 0.67 0.70 0.75 0.75 0.75 0.76 0.73
0.47 0.58 0.73 0.99 0.75 0.40 0.31 0.18 0.09 0.09 0.09 0.10 0.12 0.12 0.10 0.12 0.13 0.16 0.20 0.24 0.29 0.34 0.37 0.34 0.33 0.40 0.50 0.51 0.47 0.50 0.58 0.66 0.75 0.77 0.75 0.74 0.70 0.70 0.75 0.78 0.78 0.73 0.71 0.75 0.80 0.79 0.78 0.82 0.83